Location: Unspecified
(0.0000°N, 0.0000°E)
Time: 00:53:18
(UTC+00:00)

ISS - Pass Details

Date: 15 February 2019
Orbit: 403 x 411 km, 51.6° (Epoch: 16 February)

Event Time Altitude Azimuth Distance (km) Brightness Sun altitude
Rises 18:56:15 0° 311° (NW) 2,320 0.6 -10.3°
Reaches altitude 10° 18:58:25 10° 302° (WNW) 1,464 -0.3 -10.8°
Maximum altitude 19:01:28 35° 234° (SW) 678 -2.0 -11.5°
Drops below altitude 10° 19:04:31 10° 167° (SSE) 1,471 -1.0 -12.3°
Sets 19:06:43 0° 157° (SSE) 2,335 -0.1 -12.8°
